Regional Weather Roundup
Issued by NWS

Home | Current Version | Previous Version | Text Only | Print | Product List | Glossary On
Versions: 1 2 3 4 5 6 7 8 9 10 11 12 13 14 15 16 17 18 19 20 21 22 23 24 25 26 27 28 29 30 31 32 33 34 35 36 37 38 39 40 41 42 43 44 45 46 47 48 49 50
000
ASUS44 KLIX 261611
RWRLA
LOUISIANA WEATHER ROUNDUP
NATIONAL WEATHER SERVICE NEW ORLEANS LA
1100 AM CDT TUE JUL 26 2016

NOTE: "FAIR" INDICATES FEW OR NO CLOUDS BELOW 12,000 FEET WITH NO
      SIGNIFICANT WEATHER AND/OR OBSTRUCTIONS TO VISIBILITY.
      SKY/WX - SKY CONDITION AND SIGNIFICANT WEATHER.
      TMP - AIR TEMPERATURE.    DP   - DEWPOINT TEMPERATURE.
      RH  - RELATIVE HUMIDITY.  PRES - PRESSURE.
      HX  - HEAT INDEX.         WCI  - WIND CHILL INDEX.

*  THESE STATIONS ARE NOT NWS OR FAA STATIONS AND ARE NOT UNDER
   NWS QUALITY CONTROL.

LAZ040-048-061>063-065-066-069-261700-
SOUTHEAST LOUISIANA

CITY           SKY/WX    TMP DP  RH WIND       PRES   REMARKS
N.O. AUDUBON   NOT AVBL
N.O. INTL ARPT CLOUDY    84  75  74 SE5       29.94S THUNDER
N.O. LAKEFRONT PTSUNNY   83  74  74 E7        29.94F
N.O. DOWNTOWN* LGT RAIN  80  76  87 S6        29.96S
RESERVE*       PTSUNNY   87  78  74 E7        29.95R HX 100
SLIDELL        LGT RAIN  81  78  91 NE5       29.94S
BATON ROUGE    PTSUNNY   87  75  67 E7        29.94F HX  96
BOOTHVILLE     CLOUDY    81  76  84 SW16G26   29.96S
BELLE CHASSE   CLOUDY    78  78 100 VRB3      29.95S
BOGALUSA*      LGT RAIN  83  77  82 E3        29.98R
GALLIANO*      CLOUDY    80  77  89 W7        29.95S
NEW ROADS*     FAIR      86  76  71 NE7       29.95S HX  95
GONZALES*      FAIR      85  78  79 NE3       29.94S HX  97
HAMMOND*       CLOUDY    82  73  74 NE3       29.94F
HOUMA*         PTSUNNY   81  79  94 S7        29.95F
PORT FOURCHON* FOG       75  73  94 SW12G21   29.98R VSB 1/2

$$

LAZ041-044-053-054-261700-
SOUTHWEST LOUISIANA

CITY           SKY/WX    TMP DP  RH WIND       PRES   REMARKS
LAKE CHARLES   MOSUNNY   83  74  74 NE6       29.95R
LAFAYETTE      CLOUDY    83  77  82 CALM      29.96R FOG
PATTERSON      MOSUNNY   85  76  74 CALM      29.96S
SALT POINT       N/A     87  76  69 VRB5        N/A  HX  97
NEW IBERIA     PTSUNNY   83  75  77 VRB3      29.96S
CHENAULT AIRPK PTSUNNY   81  75  83 E8        29.96

$$

LAZ027-028-261700-
CENTRAL LOUISIANA

CITY           SKY/WX    TMP DP  RH WIND       PRES   REMARKS
FORT POLK      PTSUNNY   81  74  80 VRB5      29.96S
ALEXANDRIA INT PTSUNNY   83  76  79 NE7       29.95R
ALEXANDRIA     MOSUNNY   85  77  77 E5        29.96S HX  95

$$

LAZ001-002-261700-
NORTHWEST LOUISIANA

CITY           SKY/WX    TMP DP  RH WIND       PRES   REMARKS
SHREVEPORT     MOSUNNY   89  74  60 VRB3      29.96S HX  98
BARKSDALE AFB  NOT AVBL
DTN SHREVEPORT MOSUNNY   88  73  61 E7        29.96S HX  95

$$

LAZ014-016-261700-
NORTHEAST LOUISIANA

CITY           SKY/WX    TMP DP  RH WIND       PRES   REMARKS
MONROE         MOSUNNY   87  76  69 E7        29.98S HX  97
TALLULAH       SUNNY     90  75  61 E8        29.98S HX 100

$$




USA.gov is the U.S. government's official web portal to all federal, state and local government web resources and services.